Tracking 30922 objects as of 2-Jul-2025
HD Live streaming from Space Station
objects crossing your sky now

STARLINK-31594

Track STARLINK-31594 now!
10-day predictions
STARLINK-31594 is classified as:


NORAD ID: 59332
Int'l Code: 2024-057N
Perigee: 488.9 km
Apogee: 491.5 km
Inclination: 43.0 °
Period: 94.3 minutes
Semi major axis: 6861 km
RCS: Unknown
Launch date: March 25, 2024
Source: United States (US)
Launch site: AIR FORCE EASTERN TEST RANGE (AFETR)
Your satellite tracking list
Your tracking list is empty




NASA's NSSDC Master Catalog

Two Line Element Set (TLE):
1 59332U 24057N   25182.70488879  .00000454  00000-0  26026-4 0  9992
2 59332  43.0026 175.7962 0001838 285.8654  74.1995 15.27579600 71324
Source of the keplerian elements: AFSPC